Regional Weather Roundup
Issued by NWS Pendleton, OR

Home | Current Version | Previous Version | Text Only | Print | Product List | Glossary On
Versions: 1 2 3 4 5 6 7 8 9 10 11 12 13 14 15 16 17 18 19 20 21 22 23 24 25 26 27 28 29 30 31 32 33 34 35 36 37 38 39 40 41 42 43 44 45 46 47 48 49 50
000
ASUS46 KPDT 012125
RWRPDT
PENDLETON REGIONAL WEATHER ROUNDUP
NATIONAL WEATHER SERVICE PENDLETON OREGON
200 PM PDT SUN MAY 1 2016

NOTE: FAIR INDICATES FEW OR NO CLOUDS BELOW 12,000 FEET WITH NO
SIGNIFICANT WEATHER AND/OR OBSTRUCTIONS TO VISIBILITY.

# INDICATES UNOFFICIAL STATION AND DATA

WAZ520-012210-
EAST SLOPES OF WASHINGTON CASCADES

CITY            SKY/WX      TMP DP  RH  WIND    PRES   REMARKS
#CLE ELUM HS    N/A         70  37  30  E5      30.06F
#CLE ELUM 2NW   N/A         67  34  29  E2      N/A
#CLE ELUM LAKE  N/A         66  41  40  CALM    30.06F
#GLENWOOD       N/A         70  44  39  NE3     30.05F
#MANASTASH CYN  N/A         66  36  33  W3      30.10F
#NELSON 3SW     N/A         67  40  37  CALM    30.28F
#NILE           N/A         68  36  31  SW2     29.36F
#RONALD 2NW     N/A         67  N/A N/A SE3     29.99F
#TEANAWAY 4NE   N/A         70  46  42  S2      N/A
#TROUT LAKE 1NE N/A         68  40  36  E10     30.06F
#TROUT LAKE 1E  N/A         71  42  35  CALM    30.04F
$$

WAZ521-012210-
SIMCOE HIGHLANDS

CITY            SKY/WX      TMP DP  RH  WIND    PRES   REMARKS
#BICKLETON HS   N/A         63  29  28  NE10    N/A
#CENTERVILLE 1SWN/A         69  43  39  E9      30.02F
#GOODNOE HILLS  N/A         75  38  26  SE8     29.97F
#LYLE 6NE       N/A         72  48  43  E2      30.01F
$$

WAZ026-012210-
KITTITAS VALLEY

CITY            SKY/WX      TMP DP  RH  WIND    PRES   REMARKS
ELLENSBURG AP   SUNNY       75  35  23  E16G24  30.11F
YTC-OPS AREA    SUNNY       64  34  33  N21G35  30.14F
#ELLENSBURG CWU N/A         70  38  31  E8      30.03F
#ELLENSBURG 3NE N/A         70  43  38  N5      30.10F
#ELLENSBURG     N/A         73  38  28  NE5     N/A
#KITTITAS 3S    N/A         69  47  45  E7      30.08F
#THORP 6N       N/A         67  38  34  SW2     30.11F
$$

WAZ027-012210-
YAKIMA VALLEY

CITY            SKY/WX      TMP DP  RH  WIND    PRES   REMARKS
SUNNYSIDE AP    SUNNY       72  41  33  N10     30.08F
YAKIMA AIRPORT  SUNNY       78  33  19  E8      30.09F
YAKIMA-VAGABOND SUNNY       74  32  21  E15G24  30.08F
#GRANDVIEW      N/A         74  37  26  E2      30.07F
#MABTON         N/A         73  41  31  NE5     30.07F
#NACHES 2SW     N/A         71  40  32  E6      30.12F
#TERRACE HTS    N/A         79  43  28  N1      30.03F
#TOPPENISH      N/A         73  41  31  CALM    29.99F
#WEST VALLEY    N/A         72  33  24  E7      30.06F
#W YAKIMA       N/A         72  38  29  NE8     30.07F
#WHITE SWAN 5E  N/A         73  40  30  NE3     30.07F
#WILEY CITY 3W  N/A         73  28  19  N5      30.06F
$$

WAZ028-012210-
LOWER COLUMBIA BASIN...WASHINGTON

CITY            SKY/WX      TMP DP  RH  WIND    PRES   REMARKS
HANFORD         MOSUNNY     76  38  25  NE12    30.07F
PASCO           SUNNY       79  36  21  N16     30.06F
PROSSER AWOS    N/A         75  41  29  N10     30.09F
RICHLAND AWOS   SUNNY       79  37  22  NE13    30.06F
#BASIN CITY 5SW N/A         76  48  37  E7      30.03F
#BENTON CITY    N/A         72  44  37  E7      29.97F
#CONNELL 5N     N/A         73  40  30  E7      30.06F
#CONNELL 5NW    N/A         73  45  37  CALM    30.03F
#ELTOPIA 6NW    N/A         72  52  49  E14     29.05F
#KAHLOTUS       N/A         68  43  40  SE13    30.06F
#KENNEWICK 3S   N/A         76  49  39  CALM    30.06F
#PATERSON       N/A         74  40  29  S8      30.03F
#SAGEMOOR 2W    N/A         75  46  36  N7      29.91F
#TOUCHET 2S     N/A         71  55  57  CALM    30.04F
#WEST PASCO     N/A         77  44  31  N7      30.13F
$$

WAZ029-012210-
FOOTHILLS OF THE BLUES...WASHINGTON

CITY            SKY/WX      TMP DP  RH  WIND    PRES   REMARKS
WALLA WALLA AP  SUNNY       70  49  47  VRB6    30.07F
#CLYDE 6NW      N/A         69  39  33  E10     30.05F
#DAYTON SCHOOL  N/A         70  34  26  N7      30.08F
#LOWDEN 2SE     N/A         72  52  49  CALM    30.02F
#PLEASANT VIEW 1N/A         69  42  37  N8      30.10F
#PRESCOTT       N/A         72  46  39  NE7     30.04F
#SUDBURY        N/A         57  N/A N/A CALM    N/A
#WAITSBURG 5S   N/A         70  44  39  N6      30.14F
#WAITSBURG 8N   N/A         72  20  14  N15     29.91F
#WALLA WALLA U  N/A         72  51  48  CALM    30.05F
#WHITMAN MISSIONN/A         73  54  51  CALM    30.05F
$$

WAZ030-012210-
BLUE MOUNTAINS...WASHINGTON

CITY            SKY/WX      TMP DP  RH  WIND    PRES   REMARKS
#DIXIE 5SE      N/A         62  47  58  NW8     30.03F
$$

ORZ009-041-WAZ024-012210-
COLUMBIA RIVER GORGE

CITY            SKY/WX      TMP DP  RH  WIND    PRES   REMARKS
HOOD RIVER AP   SUNNY       75  41  29  SE8     30.05F
THE DALLES AP   SUNNY       80  37  21  E18     30.04F
#ARLINGTON AIRPON/A         73  40  30  NE15    30.06F
#CELILO DOT     N/A         80  47  31  NE6     N/A
#MARYHILL 2W    N/A         76  41  28  CALM    N/A
#MOSIER 1S      N/A         77  34  21  S3      30.03F
#MURDOCK        N/A         77  44  31  E8      29.99F
#RUFUS DOT      N/A         75  41  29  SE8     N/A

$$

ORZ510-012210-
NORTH CENTRAL OREGON

CITY            SKY/WX      TMP DP  RH  WIND    PRES   REMARKS
#ANTELOPE       N/A         67  43  42  NE6     29.88F
#COW CYN RST AREN/A         67  38  34  NE6     N/A
#DUFUR 9E       N/A         65  39  38  NE15G30 30.09F
#GRASS VALLEY   N/A         67  38  34  N7      N/A
#GRASS VALLEY 1SN/A         68  40  36  E15     30.03F
#KENT DOT       N/A         67  35  30  N14     N/A
#MAUPIN SCHOOL  N/A         73  42  33  N6      30.07F
#MORO SCHOOL    N/A         70  45  41  NE6     30.08F
#SHANIKO 5WSW   N/A         63  33  32  NE12    N/A
#TYGH VALLEY 2NEN/A         71  40  32  N13     30.03F
#WAPANITIA AIRPON/A         69  40  35  NE10    30.04F
#WASCO DOT      N/A         74  40  29  E15     N/A
#WASCO AIRPORT  N/A         73  33  23  E17     N/A
#WASCO 5NE      N/A         71  44  38  E9      30.06F
$$

ORZ511-012210-
CENTRAL OREGON

CITY            SKY/WX      TMP DP  RH  WIND    PRES   REMARKS
BEND AIRPORT    MOCLDY      68  30  24  VRB7    30.03F
MADRAS AIRPORT  PTCLDY      70  37  30  N12     30.06F
PRINEVILLE AP   MOCLDY      70  34  26  NE9     30.04F
REDMOND AIRPORT MOSUNNY     69  35  28  VRB3    30.04F
#ASHWOOD SCHOOL N/A         69  39  33  NE7     30.00F
#BEND 1SW       N/A         68  33  27  N1      N/A
#BEND-AWBREY    N/A         68  39  35  CALM    30.00F
#BEND-KIM LN    N/A         69  41  36  N1      30.02F
#CULVER         N/A         68  41  37  W2      29.98F
#LAKE BILLY CHINN/A         66  N/A N/A NW7     30.09F
#POWELL BUTTE   N/A         72  42  34  E3      29.91F
#PRINEVILLE 3N  N/A         69  38  32  E10     29.99F
#WARM SPRINGS   N/A         73  43  34  W6      30.00F

$$


ORZ509-012210-
EAST SLOPES OF OREGON CASCADES

CITY            SKY/WX      TMP DP  RH  WIND    PRES   REMARKS
SISTERS AWOS    N/A         64  39  40  VRB7    30.03F
#BLUE BOX PASS  N/A         63  N/A N/A CALM    N/A
#BLACK BUTTE RNCN/A         66  41  40  NW1     30.02F
#CAMP SHERMAN   N/A         71  39  31  S2      30.09F
#LA PINE 4NW    N/A         65  34  31  E6      30.03F
#LAVA BUTTE DOT N/A         64  26  23  E6      N/A
#SISTERS AIRPOR N/A         65  47  52  VRB9    30.17S
#SISTERS ODOT   N/A         64  N/A N/A N5      N/A
#SISTERS 1NW    N/A         66  34  30  E6      N/A
#SISTERS 3N     N/A         65  41  41  E6      30.06S
#SUNRIVER       N/A         67  31  26  E3      30.01F
#SUTTLE LK DOT  N/A         59  39  47  NE16G32 N/A
#TUMALO 3W      N/A         65  37  35  E5      29.88F
#WANOGA BUTTE D N/A         54  28  36  E10     N/A

$$

ORZ044-012210-
LOWER COLUMBIA BASIN...OREGON

CITY            SKY/WX      TMP DP  RH  WIND    PRES   REMARKS
HERMISTON       SUNNY       77  43  30  NE13    30.05F
#BOARDMAN SCHOOLN/A         74  44  34  N6      30.05F
#BOARDMAN 8SW   N/A         74  44  34  N8      30.04
#ECHO 8SW       N/A         72  42  34  NE13    30.07F
#I-84 EX 198 DOTN/A         70  44  39  E8      N/A
#UMATILLA SCHOOLN/A         76  52  43  E3      30.05F
#UMATILLA       N/A         75  43  32  NE5     29.98F
$$

ORZ507-012210-
NORTHERN FOOTHILLS OF THE BLUES

CITY            SKY/WX      TMP DP  RH  WIND    PRES   REMARKS
PENDLETON AIRPT SUNNY       71  40  32  N9      30.06F
#ADAMS 3WNW     N/A         68  41  37  NE8     30.05F
#ATHENA         N/A         66  46  48  NE6     30.09F
#CAYUSE         N/A         67  43  42  N6      30.05F
#HELIX SCHOOL   N/A         66  45  47  N9      30.06F
#HELIX 3N       N/A         65  46  50  N15     30.05F
#HELIX 6SW      N/A         68  42  39  E8      30.06F
#HOLDMAN 5SE    N/A         71  44  38  NE3     30.06F
#HOLDMAN 6E     N/A         69  44  40  S6      29.86F
#M-F FERNDALE   N/A         77  51  40  CALM    30.06F
#M-F GROVE ELEM N/A         67  46  47  N1      30.05F
#M-FREEWATER 5SEN/A         68  51  55  N1      30.06F
#PENDLETON DNTN N/A         76  44  32  N1      30.07F
#PDT AQUATIC CTRN/A         71  46  41  N8      30.08S
#PDT SUNRIDGE   N/A         73  45  37  N3      30.07F
#PENDLETON 7NW  N/A         70  46  42  E2      27.45S
#PILOT ROCK     N/A         69  45  42  CALM    30.07F
#TUTUILLA       N/A         71  49  46  CALM    30.07F
#UMAPINE 2E     N/A         71  51  49  E1      30.03F
#WESTON SCHOOL  N/A         63  38  39  NE7     30.00F

$$

ORZ508-012210-
SOUTHERN FOOTHILLS OF THE BLUES

CITY            SKY/WX      TMP DP  RH  WIND    PRES   REMARKS
#AJAX           N/A         67  34  29  N9      27.82F
#CONDON SCHOOL  N/A         65  42  43  N12     30.04F
#CONDON 5W      N/A         61  36  39  NE12    30.07F
#FOSSIL SCHOOL  N/A         68  44  42  NE15G24 30.00F
#HEPPNER EOC    N/A         68  41  37  N8      29.99F
#HEPPNER 4NE    N/A         64  41  43  N7      30.06F
#LEXINGTON 2SE  N/A         71  40  32  NE5     30.04F
#MIKKALO        N/A         72  36  27  N8      30.17F
#RUGGS 5NE      N/A         70  40  34  NE9     30.27F
#RUGGS 2SW      N/A         65  41  41  N8      30.07F

$$

ORZ502-503-012210-
BLUE MOUNTAINS

CITY            SKY/WX      TMP DP  RH  WIND    PRES   REMARKS
#BATTLE MTN DOT N/A         60  47  62  N5      N/A
#GREENHORN 9SW  N/A         68  34  28  NE3     26.25F
#HARDMAN 10S    N/A         64  40  41  N7      30.16F
#HEPPNER 15SE   N/A         66  44  45  S1      30.02F
#LADD CYN SMT   N/A         63  35  35  NW7     N/A
#LADD CREEK ODOTN/A         64  40  41  NE6     N/A
#N POWDER DOT   N/A         67  42  40  NE1     N/A
#PIKES PEAK     N/A         58  46  64  N7      27.99S
#TOLLGATE       N/A         56  34  43  SW1     29.98F
#TROY SCHOOL    N/A         71  43  36  CALM    29.91F
#UKIAH          N/A         65  44  46  N6      29.97F
#WESTON 4E      N/A         62  44  52  N1      30.04F
$$

ORZ505-012210-
JOHN DAY BASIN

CITY            SKY/WX      TMP DP  RH  WIND    PRES   REMARKS
JOHN DAY        SUNNY       69  38  32  N5      30.07F
#DAYVILLE SCHOOLN/A         72  35  26  E2      29.99F
#MITCHELL       N/A         71  47  42  CALM    30.19F
#MITCHELL 8NW   N/A         66  38  36  NE3     30.21F
#MONUMENT HS    N/A         72  35  26  SW2     29.98F
#MT. VERNON 5SE N/A         65  39  38  CALM    30.03F
#SPRAY SCHOOL   N/A         77  N/A N/A NE5     N/A
#WINLOCK        N/A         71  38  30  NW5     30.03F
$$

ORZ506-012210-
OCHOCO AND JOHN DAY HIGHLANDS

CITY            SKY/WX      TMP DP  RH  WIND    PRES   REMARKS
#HORSE RIDGE DO N/A         67  27  22  SE8     N/A
#KEYES SMT DOT  N/A         64  37  37  E13     N/A
#PAULINA SCHOOL N/A         69  37  31  CALM    29.27F
#PINE MTN OBS   N/A         54  31  41  S6      N/A
#PRAIRIE CITY   N/A         71  35  27  CALM    30.03F
#SENECA         N/A         62  N/A N/A E7      N/A
#SENECA 9NW     N/A         64  36  35  S2      30.04F
$$

ORZ049-012210-
GRANDE RONDE VALLEY

CITY            SKY/WX      TMP DP  RH  WIND    PRES   REMARKS
LA GRANDE       SUNNY       66  37  34  S5      30.08F
#COVE           N/A         65  48  54  W1      30.11F
#COVE SCHOOL    N/A         66  46  48  CALM    30.09F
#COVE 6NW       N/A         39  35  85  CALM    29.63S
#ELGIN 3N       N/A         68  35  29  CALM    30.05F
#ELGIN 1E       N/A         67  40  37  CALM    N/A
#IMBLER SCHOOL  N/A         65  39  38  CALM    30.04F
#ISLAND CITY 4N N/A         77  46  33  CALM    29.98F
#LADD CYN DOT   N/A         68  42  39  NE3     N/A
#UNION 1S       N/A         66  45  47  CALM    29.98F
$$

ORZ050-012210-
WALLOWA COUNTY

CITY            SKY/WX      TMP DP  RH  WIND    PRES   REMARKS
JOSEPH AIRPORT  SUNNY       61  37  41  CALM    30.13F
#ENTERPRISE AP  N/A         49  29  46  CALM    30.04F
#ENTERPRISE HS  N/A         62  44  52  SE2     30.11F
#IMNAHA SCHOOL  N/A         67  48  50  N6      30.07F
#IMNAHA 10S     N/A         66  49  54  NE3     30.07F
#JOSEPH 3N      N/A         60  41  49  CALM    30.13F
#JOSEPH 3W      N/A         59  40  49  CALM    29.96F
#LOSTINE        N/A         65  42  43  CALM    29.88F
#MT HOWARD 8000 N/A         40  38  92  SE3     30.22R
#PROMISE 1S     N/A         59  42  53  W3      30.19F
#WALLOWA SCHOOL N/A         66  40  38  CALM    30.05F



$$



USA.gov is the U.S. government's official web portal to all federal, state and local government web resources and services.